Other Surface Observations
Issued by NWS

Home | Current Version | Previous Version | Text Only | Print | Product List | Glossary On
Versions: 1 2 3 4 5 6 7 8 9 10 11 12 13 14 15 16 17 18 19 20 21 22 23 24 25 26 27 28 29 30 31 32 33 34 35 36 37 38 39 40 41 42 43 44 45 46 47 48 49 50
000
SXUS52 KTAE 062019
OSOTAE
OSOTAE
North Florida/South Alabama/Southwest Georgia Weather Roundup
National Weather Service Tallahassee Florida
400 PM EDT MON JUL 06 2015

Note: "fair" indicates few or no clouds below 12,000 feet with no
significant weather and/or obstructions to visibility.

!FLZ017-115-028-034-025-062100
...North Florida...

CITY           SKY/WX    TMP DP  RH WIND       PRES   REMARKS
TALLAHASSEE    CLOUDY    83  71  67 S5        30.14F THUNDER
APALACHICOLA   CLOUDY    86  71  60 NW6       30.14F HX  91
PERRY          PTSUNNY   89  65  45 SW9       30.14F HX  90
CROSS CITY       N/A     92  68  45 W13       30.13F HX  96
JACKSONVILLE   MOSUNNY   89  70  53 VRB5      30.11F HX  94
$$

!FLZ112-006-005-002-011-062100
...Florida Panhandle...

CITY           SKY/WX    TMP DP  RH WIND       PRES   REMARKS
MARIANNA       PTSUNNY   87  72  60 W8        30.14F HX  93
BONIFAY        FAIR      87  70  56 VRB3      30.15F HX  92
PANAMA CITY NW FAIR      86  74  67 SW6       30.13F HX  94
TYNDALL AFB    PTSUNNY   84  74  72 W6        30.15F HX  91
TYND DRONE APT FAIR      83  75  77 SW6       30.14F HX  90
DE FUNIAK SPR  FAIR      89  68  50 N9        30.15F HX  93
EGLIN AFB      PTSUNNY   87  70  56 S6        30.14F HX  91
DESTIN         MOSUNNY   87  69  54 VRB5      30.15F HX  91
HURLBURT       MOSUNNY   91  68  47 VRB2      30.13F HX  95
CRESTVIEW      PTSUNNY   90  68  48 W8        30.16F HX  94
PENSACOLA      PTSUNNY   88  69  53 SE9       30.15F HX  92
$$

!ALZ063-066-062100
...South Alabama...

CITY           SKY/WX    TMP DP  RH WIND       PRES   REMARKS
DOTHAN         MOSUNNY   88  69  53 W8        30.18F HX  92
OZARK CAIRNS   MOSUNNY   87  70  55 W6        30.15F HX  92
FT RUCKER HELI MOSUNNY   89  69  51 MISG      30.13F HX  93
RUCKER HELI 3  FAIR      89  67  48 NW7       30.16F HX  92
RUCKER HELI 2  FAIR      88  69  53 W8        30.15S HX  92
FLORALA APT    MOSUNNY   87  69  54 CALM      30.16F HX  91
ANDALUSIA      MOSUNNY   92  69  47 NW9       30.15F HX  97
TROY           MOSUNNY   88  68  51 VRB3      30.16F HX  91
EUFALA         FAIR      87  70  56 W5        30.14F HX  92
MOBILE         CLOUDY    88  72  58 S8        30.16F HX  94
$$

!GAZ120>161-062100
...Southwest and South Central Georgia...

CITY           SKY/WX    TMP DP  RH WIND       PRES   REMARKS
THOMASVILLE    FAIR      86  70  58 NW7       30.14F HX  90
BAINBRIDGE     MOSUNNY   90  72  55 W10       30.14F HX  96
MOODY AFB      MOSUNNY   88  68  52 W8        30.13F HX  91
VALDOSTA       PTSUNNY   88  70  55 CALM      30.13F HX  93
MOULTRIE       MOSUNNY   86  70  58 W3        30.15F HX  90
BLAKELY        PTSUNNY   88  72  58 NW5       30.15F HX  94
ALBANY         PTSUNNY   86  70  58 VRB7      30.16F HX  90
TIFTON         PTSUNNY   85  65  52 NW9       30.14F
FITZGERALD     FAIR      87  69  53 W6        30.15F HX  91
CORDELE        CLOUDY    86  72  62 W6        30.14F HX  92
AMERICUS       FAIR      84  68  58 NW8G16    30.16F
HOMERVILLE     FAIR      90  70  51 W12       30.13F HX  95
$$

!GMZ750-755-770-775-062100
...Coastal and Buoy Obs...

STATION/POSITION TIME  TEMP    WIND        PRES    VSBY  WAVE
                       AIR SEA DIR/SP/G                  HT/PER
                 (UTC) (F)     (DEG/KT/KT) (MB)    (MI)  (FT/S)
KEATON BEACH     2000   85     280/  6/  9 1020.7F
CEDAR KEY        2000   86     290/  8/ 11 1021.0F
C TOWER          2000   79     310/ 11/ 12 1020.9F
APALACHICOLA BUO 1950   85 86  310/ 12/ 12 1021.0F         2/ 5
PANAMA CITY BUOY 1950   81 85   20/  8/ 10 1021.7F         2/ 9
MOBILE BUOY      1950   84 89  110/  6/  8 1021.4F         1/ 6
ORANGE BCH AL BU 1950   85 87  230/  2/  4 1020.6F         1/ 4
$$



USA.gov is the U.S. government's official web portal to all federal, state and local government web resources and services.